Date String (YYYY-MM-DD hh:mm:ss) UTC,Instrument flags,Ambient pressure (hPa),Sample flow (lpm),Bypass flow (lpm),Sample temperature (°C),Ambient temperature (°C),ASC tube jacket temperature (°C),LED temperature (°C),Box temperature (°C),Sample RH (%),Span deviation,Mass concentration (μg/m³),Mass concentration (μg/m³),Mass concentration (μg/m³)
DateTimeUTC,F1_M11,P_M11,Q1_M11,Q2_M11,T1_M11,T2_M11,T3_M11,T4_M11,T5_M11,U1_M11,ZSPAN_M11,X0_M11,X2_M11,X1_M11
2023-04-09 22:00:00,,0835.0,5.00,0.00,28.4,27.2,00.0,36.7,29.9,08.7,0000.0,0008.38,0003.71,0002.40
2023-04-09 22:01:00,,0834.9,5.00,0.00,28.5,27.2,00.0,36.7,29.9,08.7,0000.0,0008.23,0003.61,0002.30
2023-04-09 22:02:00,,0835.0,5.00,0.00,28.4,27.2,00.0,36.7,30.0,08.7,0000.0,0008.24,0003.60,0002.24
2023-04-09 22:03:00,,0835.0,5.00,0.00,28.5,27.2,00.0,36.7,30.0,08.5,0000.0,0008.36,0003.63,0002.18
2023-04-09 22:04:00,,0834.9,5.00,0.00,28.5,27.2,00.0,36.8,30.0,08.7,0000.0,0008.55,0003.65,0002.12
2023-04-09 22:05:00,,0834.9,5.00,0.00,28.5,27.2,00.0,36.8,30.0,08.8,0000.0,0008.36,0003.63,0002.09
2023-04-09 22:06:00,,0835.1,5.00,0.00,28.5,27.2,00.0,36.8,30.0,08.5,0000.0,0007.95,0003.62,0002.06
2023-04-09 22:07:00,,0835.3,5.00,0.00,28.5,27.2,00.0,36.8,30.0,08.4,0000.0,0007.84,0003.59,0002.03
2023-04-09 22:08:00,,0835.2,5.00,0.00,28.5,27.2,00.0,36.8,30.0,08.3,0000.0,0007.73,0003.54,0002.00
2023-04-09 22:09:00,,0835.1,5.00,0.00,28.5,27.2,00.0,36.8,30.0,08.3,0000.0,0007.72,0003.52,0001.99
2023-04-09 22:10:00,,0835.3,5.00,0.00,28.5,27.2,00.0,36.8,30.0,08.4,0000.0,0007.62,0003.49,0001.97
2023-04-09 22:11:00,,0835.3,5.00,0.00,28.5,27.2,00.0,36.8,30.0,08.4,0000.0,0007.60,0003.50,0001.96
2023-04-09 22:12:00,,0835.2,5.00,0.00,28.5,27.2,00.0,36.8,30.0,08.3,0000.0,0007.66,0003.50,0001.96
2023-04-09 22:13:00,,0835.1,5.00,0.00,28.5,27.2,00.0,36.8,30.0,08.4,0000.0,0007.85,0003.49,0001.96
2023-04-09 22:14:00,,0835.3,5.00,0.00,28.5,27.2,00.0,36.8,30.0,08.4,0000.0,0007.85,0003.46,0001.95
2023-04-09 22:15:00,,0835.0,5.00,0.00,28.5,27.2,00.0,36.8,30.0,08.2,0000.0,0007.73,0003.44,0001.94
2023-04-09 22:16:00,,0835.3,5.00,0.00,28.5,27.2,00.0,36.8,30.0,08.4,0000.0,0007.72,0003.40,0001.92
2023-04-09 22:17:00,,0835.1,5.00,0.00,28.5,27.2,00.0,36.8,30.0,08.3,0000.0,0007.85,0003.35,0001.90
2023-04-09 22:18:00,,0834.9,5.00,0.00,28.5,27.2,00.0,36.8,30.0,08.2,0000.0,0007.81,0003.32,0001.89
2023-04-09 22:19:00,,0834.9,5.00,0.00,28.5,27.2,00.0,36.8,30.0,08.4,0000.0,0007.83,0003.33,0001.87
2023-04-09 22:20:00,,0834.8,5.01,0.00,28.5,27.2,00.0,36.8,30.0,08.6,0000.0,0008.26,0003.36,0001.87
2023-04-09 22:21:00,,0835.0,5.00,0.00,28.5,27.2,00.0,36.8,30.0,08.3,0000.0,0008.42,0003.36,0001.85
2023-04-09 22:22:00,,0834.7,5.00,0.00,28.5,27.2,00.0,36.8,30.0,08.2,0000.0,0008.29,0003.32,0001.84
2023-04-09 22:23:00,,0835.0,5.00,0.00,28.5,27.1,00.0,36.8,30.0,08.2,0000.0,0008.21,0003.30,0001.83
2023-04-09 22:24:00,,0835.0,5.00,0.00,28.5,27.1,00.0,36.8,30.0,08.1,0000.0,0008.09,0003.32,0001.82
2023-04-09 22:25:00,,0835.3,4.99,0.00,28.5,27.1,00.0,36.8,29.9,08.2,0000.0,0008.04,0003.32,0001.82
2023-04-09 22:26:00,,0835.4,4.99,0.00,28.5,27.1,00.0,36.8,30.0,08.2,0000.0,0008.46,0003.31,0001.83
2023-04-09 22:27:00,,0835.3,5.00,0.00,28.5,27.1,00.0,36.8,30.0,08.0,0000.0,0008.56,0003.33,0001.84
2023-04-09 22:28:00,,0835.0,5.01,0.00,28.5,27.0,00.0,36.8,29.9,08.0,0000.0,0008.35,0003.32,0001.84
2023-04-09 22:29:00,,0834.7,5.01,0.00,28.5,27.0,00.0,36.8,30.0,08.1,0000.0,0008.76,0003.36,0001.83
2023-04-09 22:30:00,,0834.8,5.00,0.00,28.5,27.1,00.0,36.8,30.0,08.0,0000.0,0008.83,0003.39,0001.83
2023-04-09 22:31:00,,0835.0,4.99,0.00,28.5,27.1,00.0,36.8,30.0,08.2,0000.0,0008.88,0003.38,0001.83
2023-04-09 22:32:00,,0834.9,4.99,0.00,28.5,27.1,00.0,36.9,30.1,08.1,0000.0,0008.97,0003.37,0001.82
2023-04-09 22:33:00,,0834.7,5.00,0.00,28.5,27.1,00.0,36.9,30.1,08.2,0000.0,0008.98,0003.39,0001.84
2023-04-09 22:34:00,,0835.0,5.00,0.00,28.5,27.2,00.0,36.9,30.1,08.2,0000.0,0009.08,0003.43,0001.85
2023-04-09 22:35:00,,0835.3,5.00,0.00,28.6,27.2,00.0,36.9,30.1,08.2,0000.0,0009.17,0003.48,0001.87
2023-04-09 22:36:00,,0835.0,5.00,0.00,28.6,27.2,00.0,36.9,30.1,08.1,0000.0,0009.28,0003.48,0001.88
2023-04-09 22:37:00,,0834.8,5.01,0.00,28.5,27.2,00.0,36.9,30.1,07.9,0000.0,0009.09,0003.45,0001.88
2023-04-09 22:38:00,,0834.8,5.00,0.00,28.5,27.2,00.0,36.9,30.1,07.9,0000.0,0008.67,0003.43,0001.90
2023-04-09 22:39:00,,0834.8,5.01,0.00,28.6,27.2,00.0,36.9,30.1,07.9,0000.0,0008.88,0003.49,0001.90
2023-04-09 22:40:00,,0834.7,5.00,0.00,28.6,27.2,00.0,36.9,30.1,07.8,0000.0,0008.83,0003.52,0001.89
2023-04-09 22:41:00,,0834.9,5.00,0.00,28.6,27.2,00.0,36.9,30.1,07.8,0000.0,0008.73,0003.55,0001.89
2023-04-09 22:42:00,,0835.2,4.99,0.00,28.6,27.2,00.0,36.9,30.1,07.9,0000.0,0008.64,0003.53,0001.90
2023-04-09 22:43:00,,0835.1,5.00,0.00,28.6,27.2,00.0,36.9,30.1,08.0,0000.0,0007.87,0003.53,0001.90
2023-04-09 22:44:00,,0834.7,5.01,0.00,28.6,27.2,00.0,36.9,30.1,08.0,0000.0,0007.87,0003.52,0001.89
2023-04-09 22:45:00,,0835.3,5.00,0.00,28.6,27.3,00.0,36.9,30.2,08.0,0000.0,0007.87,0003.51,0001.89
2023-04-09 22:46:00,,0834.8,5.01,0.00,28.6,27.3,00.0,36.9,30.2,08.0,0000.0,0007.79,0003.48,0001.87
2023-04-09 22:47:00,,0834.7,5.00,0.00,28.7,27.3,00.0,36.9,30.2,08.1,0000.0,0007.66,0003.48,0001.85
2023-04-09 22:48:00,,0834.7,5.00,0.00,28.7,27.3,00.0,37.0,30.2,08.1,0000.0,0007.62,0003.50,0001.84
2023-04-09 22:49:00,,0834.7,4.99,0.00,28.7,27.3,00.0,37.0,30.2,08.4,0000.0,0007.68,0003.50,0001.82
2023-04-09 22:50:00,,0834.8,5.00,0.00,28.7,27.3,00.0,37.0,30.2,08.1,0000.0,0007.55,0003.48,0001.83
2023-04-09 22:51:00,,0835.0,5.00,0.00,28.7,27.3,00.0,37.0,30.2,08.0,0000.0,0007.43,0003.47,0001.83
2023-04-09 22:52:00,,0835.3,5.00,0.00,28.7,27.4,00.0,37.0,30.2,07.9,0000.0,0007.33,0003.40,0001.83
2023-04-09 22:53:00,,0835.3,5.01,0.00,28.7,27.4,00.0,37.0,30.2,07.9,0000.0,0007.41,0003.38,0001.82
2023-04-09 22:54:00,,0835.3,5.01,0.00,28.7,27.4,00.0,37.0,30.2,08.0,0000.0,0007.88,0003.37,0001.81
2023-04-09 22:55:00,,0835.3,5.01,0.00,28.7,27.4,00.0,37.0,30.3,08.3,0000.0,0008.38,0003.40,0001.83
2023-04-09 22:56:00,,0835.4,5.00,0.00,28.8,27.5,00.0,37.0,30.3,09.3,0000.0,0008.36,0003.40,0001.87
2023-04-09 22:57:00,,0835.0,5.01,0.00,28.8,27.5,00.0,37.0,30.3,09.6,0000.0,0008.42,0003.46,0001.96
2023-04-09 22:58:00,,0834.9,5.00,0.00,28.8,27.5,00.0,37.1,30.3,09.7,0000.0,0008.41,0003.48,0002.06
2023-04-09 22:59:00,,0834.8,5.00,0.00,28.8,27.5,00.0,37.1,30.3,09.7,0000.0,0008.42,0003.52,0002.17
